Time,TemperatureF,DewpointF,PressureIn,WindDirection,WindDirectionDegrees,WindSpeedMPH,WindSpeedGustMPH,Humidity,HourlyPrecipIn,Conditions,Clouds,dailyrainin,SolarRadiationWatts/m^2,SoftwareType,DateUTC
2013-03-04 00:01:00,57.0,13.0,29.73,WSW,243,12.0,15.0,17,0.00,,,-99.99,0.000000,,2013-03-04 06:01:00,
2013-03-04 00:11:00,57.0,14.0,29.72,WSW,243,15.0,17.0,18,0.00,,,-99.99,0.000000,,2013-03-04 06:11:00,
2013-03-04 00:21:00,57.0,14.0,29.72,WSW,243,15.0,17.0,18,0.00,,,-99.99,0.000000,,2013-03-04 06:21:00,
2013-03-04 00:31:00,57.0,14.0,29.72,WSW,243,15.0,17.0,18,0.00,,,-99.99,0.000000,,2013-03-04 06:31:00,
2013-03-04 00:42:00,57.0,14.0,29.72,WSW,243,15.0,17.0,18,0.00,,,-99.99,0.000000,,2013-03-04 06:42:00,
2013-03-04 08:42:00,55.0,25.0,29.79,West,265,9.0,12.0,31,0.00,,,-99.99,229.399994,,2013-03-04 14:42:00,
2013-03-04 08:52:00,55.0,25.0,29.79,West,265,9.0,12.0,31,0.00,,,-99.99,229.399994,,2013-03-04 14:52:00,
2013-03-04 09:01:00,55.0,25.0,29.79,West,265,9.0,12.0,31,0.00,,,-99.99,229.399994,,2013-03-04 15:01:00,
2013-03-04 09:11:00,59.0,26.0,29.80,West,261,9.0,12.0,28,0.00,,,-99.99,314.700012,,2013-03-04 15:11:00,
2013-03-04 09:21:00,59.0,26.0,29.80,West,261,9.0,12.0,28,0.00,,,-99.99,314.700012,,2013-03-04 15:21:00,
2013-03-04 09:32:00,59.0,26.0,29.80,West,261,9.0,12.0,28,0.00,,,-99.99,314.700012,,2013-03-04 15:32:00,
2013-03-04 09:42:00,65.0,26.0,29.80,West,263,11.0,15.0,23,0.00,,,-99.99,432.399994,,2013-03-04 15:42:00,
2013-03-04 09:51:00,65.0,26.0,29.80,West,263,11.0,15.0,23,0.00,,,-99.99,432.399994,,2013-03-04 15:51:00,
2013-03-04 10:02:00,65.0,26.0,29.80,West,263,11.0,15.0,23,0.00,,,-99.99,432.399994,,2013-03-04 16:02:00,
2013-03-04 10:11:00,69.0,24.0,29.79,WNW,284,12.0,17.0,18,0.00,,,-99.99,525.200012,,2013-03-04 16:11:00,
2013-03-04 10:21:00,69.0,24.0,29.79,WNW,284,12.0,17.0,18,0.00,,,-99.99,525.200012,,2013-03-04 16:21:00,
2013-03-04 10:31:00,69.0,24.0,29.79,WNW,284,12.0,17.0,18,0.00,,,-99.99,525.200012,,2013-03-04 16:31:00,
2013-03-04 10:42:00,72.0,21.0,29.79,WNW,289,17.0,23.0,14,0.00,,,-99.99,609.099976,,2013-03-04 16:42:00,
2013-03-04 10:52:00,72.0,21.0,29.79,WNW,289,17.0,23.0,14,0.00,,,-99.99,609.099976,,2013-03-04 16:52:00,
2013-03-04 11:02:00,72.0,21.0,29.79,WNW,289,17.0,23.0,14,0.00,,,-99.99,609.099976,,2013-03-04 17:02:00,
2013-03-04 11:11:00,73.0,20.0,29.78,WNW,293,23.0,29.0,12,0.00,,,-99.99,678.200012,,2013-03-04 17:11:00,
2013-03-04 11:22:00,73.0,20.0,29.78,WNW,293,23.0,29.0,12,0.00,,,-99.99,678.200012,,2013-03-04 17:22:00,
2013-03-04 11:32:00,73.0,20.0,29.78,WNW,293,23.0,29.0,12,0.00,,,-99.99,678.200012,,2013-03-04 17:32:00,
2013-03-04 11:42:00,74.0,20.0,29.77,NW,306,22.0,28.0,12,0.00,,,-99.99,725.000000,,2013-03-04 17:42:00,
2013-03-04 11:52:00,74.0,20.0,29.77,NW,306,22.0,28.0,12,0.00,,,-99.99,725.000000,,2013-03-04 17:52:00,
2013-03-04 12:01:00,74.0,20.0,29.77,NW,306,22.0,28.0,12,0.00,,,-99.99,725.000000,,2013-03-04 18:01:00,
2013-03-04 12:11:00,76.0,21.0,29.76,WNW,302,21.0,30.0,12,0.00,,,-99.99,757.000000,,2013-03-04 18:11:00,
2013-03-04 12:21:00,76.0,21.0,29.76,WNW,302,21.0,30.0,12,0.00,,,-99.99,757.000000,,2013-03-04 18:21:00,
2013-03-04 12:32:00,76.0,21.0,29.76,WNW,302,21.0,30.0,12,0.00,,,-99.99,757.000000,,2013-03-04 18:32:00,
2013-03-04 12:42:00,77.0,22.0,29.75,WNW,289,20.0,27.0,12,0.00,,,-99.99,759.000000,,2013-03-04 18:42:00,
2013-03-04 12:52:00,77.0,22.0,29.75,WNW,289,20.0,27.0,12,0.00,,,-99.99,759.000000,,2013-03-04 18:52:00,
2013-03-04 13:01:00,77.0,22.0,29.75,WNW,289,20.0,27.0,12,0.00,,,-99.99,759.000000,,2013-03-04 19:01:00,
2013-03-04 13:11:00,78.0,22.0,29.73,West,262,18.0,26.0,12,0.00,,,-99.99,773.000000,,2013-03-04 19:11:00,
2013-03-04 13:21:00,78.0,22.0,29.73,West,262,18.0,26.0,12,0.00,,,-99.99,773.000000,,2013-03-04 19:21:00,
2013-03-04 13:32:00,78.0,22.0,29.73,West,262,18.0,26.0,12,0.00,,,-99.99,773.000000,,2013-03-04 19:32:00,
2013-03-04 13:42:00,78.0,22.0,29.72,WNW,290,18.0,25.0,12,0.00,,,-99.99,788.000000,,2013-03-04 19:42:00,
2013-03-04 13:51:00,78.0,22.0,29.72,WNW,290,18.0,25.0,12,0.00,,,-99.99,788.000000,,2013-03-04 19:51:00,
2013-03-04 14:01:00,78.0,22.0,29.72,WNW,290,18.0,25.0,12,0.00,,,-99.99,788.000000,,2013-03-04 20:01:00,
2013-03-04 14:11:00,78.0,22.0,29.69,WNW,283,17.0,24.0,11,0.00,,,-99.99,791.000000,,2013-03-04 20:11:00,
2013-03-04 14:22:00,78.0,22.0,29.69,WNW,283,17.0,24.0,11,0.00,,,-99.99,791.000000,,2013-03-04 20:22:00,
2013-03-04 14:32:00,78.0,22.0,29.69,WNW,283,17.0,24.0,11,0.00,,,-99.99,791.000000,,2013-03-04 20:32:00,
2013-03-04 14:42:00,79.0,21.0,29.68,West,278,17.0,25.0,11,0.00,,,-99.99,695.799988,,2013-03-04 20:42:00,
2013-03-04 14:52:00,79.0,21.0,29.68,West,278,17.0,25.0,11,0.00,,,-99.99,695.799988,,2013-03-04 20:52:00,
2013-03-04 15:01:00,79.0,21.0,29.68,West,278,17.0,25.0,11,0.00,,,-99.99,695.799988,,2013-03-04 21:01:00,
2013-03-04 15:12:00,79.0,20.0,29.67,West,267,20.0,26.0,10,0.00,,,-99.99,479.200012,,2013-03-04 21:12:00,
2013-03-04 15:21:00,79.0,20.0,29.67,West,267,20.0,26.0,10,0.00,,,-99.99,479.200012,,2013-03-04 21:21:00,
2013-03-04 15:32:00,79.0,20.0,29.67,West,267,20.0,26.0,10,0.00,,,-99.99,479.200012,,2013-03-04 21:32:00,
2013-03-04 15:42:00,80.0,21.0,29.66,WSW,244,16.0,29.0,11,0.00,,,-99.99,719.000000,,2013-03-04 21:42:00,
2013-03-04 15:52:00,80.0,21.0,29.66,WSW,244,16.0,29.0,11,0.00,,,-99.99,719.000000,,2013-03-04 21:52:00,
2013-03-04 16:01:00,80.0,21.0,29.66,WSW,244,16.0,29.0,11,0.00,,,-99.99,719.000000,,2013-03-04 22:01:00,
2013-03-04 16:12:00,79.0,20.0,29.66,West,270,13.0,18.0,11,0.00,,,-99.99,206.300003,,2013-03-04 22:12:00,
2013-03-04 16:22:00,79.0,20.0,29.66,West,270,13.0,18.0,11,0.00,,,-99.99,206.300003,,2013-03-04 22:22:00,
2013-03-04 16:32:00,79.0,20.0,29.66,West,270,13.0,18.0,11,0.00,,,-99.99,206.300003,,2013-03-04 22:32:00,
2013-03-04 16:42:00,78.0,20.0,29.65,NW,311,14.0,19.0,11,0.00,,,-99.99,295.799988,,2013-03-04 22:42:00,
2013-03-04 16:52:00,78.0,20.0,29.65,NW,311,14.0,19.0,11,0.00,,,-99.99,295.799988,,2013-03-04 22:52:00,
2013-03-04 17:01:00,78.0,20.0,29.65,NW,311,14.0,19.0,11,0.00,,,-99.99,295.799988,,2013-03-04 23:01:00,
2013-03-04 17:11:00,78.0,20.0,29.65,WNW,295,15.0,22.0,11,0.00,,,-99.99,211.699997,,2013-03-04 23:11:00,
2013-03-04 17:22:00,78.0,20.0,29.65,WNW,295,15.0,22.0,11,0.00,,,-99.99,211.699997,,2013-03-04 23:22:00,
2013-03-04 17:32:00,78.0,20.0,29.65,WNW,295,15.0,22.0,11,0.00,,,-99.99,211.699997,,2013-03-04 23:32:00,
2013-03-04 17:42:00,77.0,20.0,29.66,NW,308,18.0,23.0,11,0.00,,,-99.99,216.600006,,2013-03-04 23:42:00,
2013-03-04 17:52:00,77.0,20.0,29.66,NW,308,18.0,23.0,11,0.00,,,-99.99,216.600006,,2013-03-04 23:52:00,
2013-03-04 18:01:00,77.0,20.0,29.66,NW,308,18.0,23.0,11,0.00,,,-99.99,216.600006,,2013-03-05 00:01:00,
2013-03-04 18:11:00,75.0,20.0,29.67,NW,326,12.0,19.0,12,0.00,,,-99.99,93.000000,,2013-03-05 00:11:00,
2013-03-04 18:21:00,75.0,20.0,29.67,NW,326,12.0,19.0,12,0.00,,,-99.99,93.000000,,2013-03-05 00:21:00,
2013-03-04 18:32:00,75.0,20.0,29.67,NW,326,12.0,19.0,12,0.00,,,-99.99,93.000000,,2013-03-05 00:32:00,
2013-03-04 18:42:00,72.0,20.0,29.69,NNW,334,12.0,17.0,14,0.00,,,-99.99,20.750000,,2013-03-05 00:42:00,
2013-03-04 18:51:00,72.0,20.0,29.69,NNW,334,12.0,17.0,14,0.00,,,-99.99,20.750000,,2013-03-05 00:51:00,
2013-03-04 19:01:00,72.0,20.0,29.69,NNW,334,12.0,17.0,14,0.00,,,-99.99,20.750000,,2013-03-05 01:01:00,
2013-03-04 19:12:00,69.0,21.0,29.71,NNW,344,9.0,12.0,15,0.00,,,-99.99,0.396000,,2013-03-05 01:12:00,
2013-03-04 19:21:00,69.0,21.0,29.71,NNW,344,9.0,12.0,15,0.00,,,-99.99,0.396000,,2013-03-05 01:21:00,
2013-03-04 19:32:00,69.0,21.0,29.71,NNW,344,9.0,12.0,15,0.00,,,-99.99,0.396000,,2013-03-05 01:32:00,
2013-03-04 19:41:00,68.0,21.0,29.73,NNW,338,9.0,13.0,17,0.00,,,-99.99,0.000000,,2013-03-05 01:41:00,
2013-03-04 19:51:00,68.0,21.0,29.73,NNW,338,9.0,13.0,17,0.00,,,-99.99,0.000000,,2013-03-05 01:51:00,
2013-03-04 20:01:00,68.0,21.0,29.73,NNW,338,9.0,13.0,17,0.00,,,-99.99,0.000000,,2013-03-05 02:01:00,
2013-03-04 20:11:00,66.0,22.0,29.75,NNW,334,9.0,13.0,18,0.00,,,-99.99,0.000000,,2013-03-05 02:11:00,
2013-03-04 20:21:00,66.0,22.0,29.75,NNW,334,9.0,13.0,18,0.00,,,-99.99,0.000000,,2013-03-05 02:21:00,
2013-03-04 20:32:00,66.0,22.0,29.75,NNW,334,9.0,13.0,18,0.00,,,-99.99,0.000000,,2013-03-05 02:32:00,
2013-03-04 20:42:00,64.0,23.0,29.77,NNW,329,6.0,9.0,21,0.00,,,-99.99,0.000000,,2013-03-05 02:42:00,
2013-03-04 20:52:00,64.0,23.0,29.77,NNW,329,6.0,9.0,21,0.00,,,-99.99,0.000000,,2013-03-05 02:52:00,
2013-03-04 21:02:00,64.0,23.0,29.77,NNW,329,6.0,9.0,21,0.00,,,-99.99,0.000000,,2013-03-05 03:02:00,
2013-03-04 21:12:00,63.0,23.0,29.80,NW,322,10.0,17.0,22,0.00,,,-99.99,0.000000,,2013-03-05 03:12:00,
2013-03-04 21:22:00,63.0,23.0,29.80,NW,322,10.0,17.0,22,0.00,,,-99.99,0.000000,,2013-03-05 03:22:00,
2013-03-04 21:32:00,63.0,23.0,29.80,NW,322,10.0,17.0,22,0.00,,,-99.99,0.000000,,2013-03-05 03:32:00,
2013-03-04 21:42:00,61.0,32.0,29.87,NNE,33,25.0,37.0,32,0.00,,,-99.99,0.000000,,2013-03-05 03:42:00,
2013-03-04 21:52:00,61.0,32.0,29.87,NNE,33,25.0,37.0,32,0.00,,,-99.99,0.000000,,2013-03-05 03:52:00,
2013-03-04 22:01:00,61.0,32.0,29.87,NNE,33,25.0,37.0,32,0.00,,,-99.99,0.000000,,2013-03-05 04:01:00,
2013-03-04 22:11:00,56.0,36.0,29.90,NE,44,21.0,31.0,46,0.00,,,-99.99,0.000000,,2013-03-05 04:11:00,
2013-03-04 22:22:00,56.0,36.0,29.90,NE,44,21.0,31.0,46,0.00,,,-99.99,0.000000,,2013-03-05 04:22:00,
2013-03-04 22:32:00,56.0,36.0,29.90,NE,44,21.0,31.0,46,0.00,,,-99.99,0.000000,,2013-03-05 04:32:00,
2013-03-04 22:42:00,53.0,35.0,29.93,NE,41,16.0,23.0,51,0.00,,,-99.99,0.000000,,2013-03-05 04:42:00,
2013-03-04 22:52:00,53.0,35.0,29.93,NE,41,16.0,23.0,51,0.00,,,-99.99,0.000000,,2013-03-05 04:52:00,
2013-03-04 23:01:00,53.0,35.0,29.93,NE,41,16.0,23.0,51,0.00,,,-99.99,0.000000,,2013-03-05 05:01:00,
2013-03-04 23:12:00,50.0,32.0,30.01,NNE,21,25.0,36.0,50,0.00,,,-99.99,0.000000,,2013-03-05 05:12:00,
2013-03-04 23:22:00,50.0,32.0,30.01,NNE,21,25.0,36.0,50,0.00,,,-99.99,0.000000,,2013-03-05 05:22:00,
2013-03-04 23:31:00,50.0,32.0,30.01,NNE,21,25.0,36.0,50,0.00,,,-99.99,0.000000,,2013-03-05 05:31:00,
2013-03-04 23:42:00,47.0,34.0,30.04,NNE,15,27.0,37.0,59,0.00,,,-99.99,0.000000,,2013-03-05 05:42:00,
2013-03-04 23:52:00,47.0,34.0,30.04,NNE,15,27.0,37.0,59,0.00,,,-99.99,0.000000,,2013-03-05 05:52:00,